User: anonymous   Login
Location: Caltech
(34.1382°N, 118.1253°W)
Time: 00:34:03
(UTC-07:00)
Language:

Cosmos 1606 - Orbit

View from above orbital plane
View from above orbital plane
View from above satellite
View from above satellite

Ground track
Ground track

The orbit data is extracted from the following two-line orbital elements,

1 15369U 84111A   17291.18118019  .00000589  00000-0  29053-4 0  9993
2 15369  82.5302   1.5697 0017690 186.5935 173.5068 15.15764686799097
Epoch (UTC): 18 October 2017 04:20:53
Eccentricity: 0.0017690
inclination: 82.5302°
perigee height: 506 km
apogee height: 531 km
right ascension of ascending node: 1.5697°
argument of perigee: 186.5935°
revolutions per day: 15.15764686
mean anomaly at epoch: 173.5068°
orbit number at epoch: 79909

The dashed part of the orbit path shows where the satellite is in the earth's shadow,  

DLR